Weather observations for the past three days for
Worthington, Worthington Municipal Airport
Metric (Imperial)
Date Time (cdt) Wind (kph) Vis. (km) Weather Sky Cond. Temperature (ºC) Relative Humidity Wind Chill (°C) Heat Index (°C) Pressure Precipitation (cm)
Air Dwpt 6 hour altimeter (cm) sea level (mb) 1 hr 3 hr 6 hr
Max. Min.
05 05:56 W 11 16.09 Fair CLR 0 -4.4 73% -3 75.74 1011.0
05 04:56 W 13 16.09 Fair CLR 0.6 -4.4 70% -3 75.72 1010.6
05 03:56 W 11 16.09 Fair CLR 1.7 -4.4 64% -1 75.72 1010.3
05 02:56 NW 9 16.09 Fair CLR 3.3 -3.9 60% 1 75.69 1010.0
05 01:56 NW 13 16.09 Fair CLR 2.8 -4.4 59% -0 75.67 1009.7
05 00:56 NW 9 16.09 Fair CLR 3.3 -3.9 10.6 2.8 60% 1 75.69 1009.7
04 23:56 W 7 16.09 Fair CLR 5 -3.9 53% 4 75.67 1009.4
04 22:56 NW 13 16.09 Fair CLR 5 -3.3 55% 2 75.67 1009.6
04 21:56 NW 13 16.09 Fair CLR 6.1 -2.8 53% 4 75.67 1009.3
04 20:56 NW 15 16.09 Fair CLR 8.9 -3.3 42% 7 75.59 1008.3
04 19:56 NW 24 16.09 Fair CLR 10 -3.3 39% 7 75.57 1007.8
04 18:56 NW 33 G 44 16.09 Fair and Breezy CLR 10.6 -2.8 17.2 10.6 39% 75.51 1007.3
04 17:56 NW 37 G 52 16.09 Fair and Breezy CLR 12.8 -1.7 37% 75.46 1006.2
04 16:56 NW 44 G 57 16.09 Fair and Windy CLR 12.8 -2.8 34% 75.46 1006.4
04 15:56 W 43 16.09 Mostly Cloudy and Windy SCT070 BKN080 14.4 -1.1 35% 75.36 1005.0
04 14:56 NW 37 16.09 Fair and Breezy CLR 15.6 -1.1 32% 75.36 1004.9
04 13:56 NW 43 G 61 16.09 Fair and Windy CLR 16.1 -1.7 30% 75.34 1004.5
04 12:56 NW 37 G 54 16.09 Fair and Breezy CLR 16.1 -2.2 17.2 11.7 29% 75.29 1003.7
04 11:56 NW 33 G 44 16.09 Fair and Breezy CLR 16.7 0 32% 75.23 1003.1
04 10:56 NW 33 G 43 16.09 Fair and Breezy CLR 16.1 0 34% 75.18 1002.3
04 09:56 N 35 16.09 Fair and Breezy CLR 15 -0.6 35% 75.13 1001.9
04 08:56 N 26 G 43 16.09 Fair CLR 14.4 4.4 51% 75.11 1001.4
04 07:56 W 19 16.09 Fair CLR 12.2 4.4 59% 75.08 1000.8
04 06:56 SW 37 16.09 Fair and Breezy CLR 13.3 2.8 13.3 10.6 49% 74.98 999.3
04 05:56 SW 35 G 46 16.09 Fair and Breezy CLR 13.3 2.8 49% 74.98 999.5
04 04:56 SW 20 16.09 Fair CLR 11.7 2.2 52% 75.08 1000.7
04 03:56 SW 22 16.09 Fair CLR 12.2 1.7 49% 75.08 1000.8
04 02:56 SW 19 16.09 Fair CLR 11.1 1.7 53% 75.13 1001.7
04 01:56 SW 17 16.09 Fair CLR 11.1 1.7 53% 75.21 1002.7
04 00:56 SW 19 16.09 Fair CLR 12.2 2.2 20.6 11.7 51% 75.29 1003.7
03 23:56 SW 13 16.09 Fair CLR 12.2 1.7 49% 75.36 1004.7
03 22:56 SW 17 16.09 Fair CLR 13.9 1.7 44% 75.41 1005.4
03 21:56 SW 15 16.09 Fair CLR 13.9 0.6 41% 75.49 1006.4
03 20:56 SW 17 16.09 Fair CLR 16.7 0 32% 75.49 1006.5
03 19:56 W 19 16.09 Fair CLR 19.4 -0.6 26% 75.51 1006.6
03 18:56 W 31 G 37 16.09 Fair CLR 20.6 -2.2 21.7 18.9 22% 75.51 1006.9
03 17:56 W 22 G 35 16.09 Fair CLR 21.1 0 25% 75.54 1007.2
03 16:56 W 20 G 37 16.09 Fair CLR 21.1 -1.1 23% 75.59 1007.8
03 15:56 NW 22 G 37 16.09 Fair CLR 21.1 0 25% 75.64 1008.4
03 14:56 NW 19 G 44 16.09 Fair CLR 20.6 1.1 27% 75.69 1009.0
03 13:56 NW 26 G 33 16.09 Fair CLR 19.4 2.2 32% 75.74 1009.7
03 12:56 NW 22 G 43 16.09 Fair CLR 18.9 1.1 18.9 10.6 30% 75.79 1010.4
03 11:56 N 33 G 46 16.09 Fair and Breezy CLR 17.8 2.8 37% 75.79 1010.7
03 10:56 N 31 G 44 16.09 Fair CLR 17.2 2.8 38% 75.82 1010.8
03 09:56 NW 33 G 43 16.09 Fair and Breezy CLR 16.1 3.9 44% 75.82 1010.8
03 08:56 NW 35 G 44 16.09 Fair and Breezy CLR 13.9 2.8 47% 75.79 1010.6
03 07:56 NW 33 16.09 Fair and Breezy CLR 12.2 2.2 51% 75.72 1009.6
03 06:56 NW 30 16.09 Fair CLR 10.6 1.7 14.4 7.8 54% 75.64 1008.7
03 05:56 NW 22 16.09 Fair CLR 10.6 1.7 54% 75.59 1007.9
03 04:56 W 17 16.09 Fair CLR 7.8 0.6 61% 5 75.59 1008.1
03 03:56 W 19 16.09 Fair CLR 10.6 0 48% 75.57 1007.6
03 02:56 SW 20 16.09 Fair CLR 12.2 -0.6 42% 75.59 1008.0
03 01:56 SW 33 G 48 16.09 Fair and Breezy CLR 14.4 -0.6 36% 75.57 1007.5
03 00:56 SW 24 16.09 Mostly Cloudy BKN110 13.9 0 18.3 13.9 39% 75.59 1008.0
02 23:56 S 28 16.09 A Few Clouds FEW110 13.9 -1.7 34% 75.67 1009.0
02 22:56 S 24 16.09 Fair CLR 14.4 -1.1 35% 75.69 1009.5
02 21:56 S 15 16.09 Overcast OVC100 15 -1.1 33% 75.77 1010.7
02 20:56 S 17 16.09 Fair CLR 16.1 -1.1 31% 75.82 1011.2
02 19:56 SW 22 16.09 Overcast OVC110 17.2 -1.7 28% 75.87 1011.9
02 18:56 SW 22 16.09 Mostly Cloudy BKN120 18.3 -2.2 18.9 15.6 25% 75.92 1013.0
02 17:56 SW 20 16.09 Mostly Cloudy BKN110 18.9 -1.1 26% 75.95 1013.3
02 16:56 SW 26 16.09 Fair CLR 18.3 -0.6 28% 76.05 1014.6
02 15:56 W 24 G 37 16.09 Fair CLR 18.9 -0.6 27% 76.1 1015.2
02 14:56 SW 19 G 31 16.09 Fair CLR 17.2 -1.1 29% 76.17 1016.6
02 13:56 W 22 G 30 16.09 A Few Clouds FEW075 16.7 -0.6 31% 76.25 1017.6
02 12:56 SW 19 G 33 16.09 Fair CLR 15.6 -1.1 15.6 1.7 32% 76.33 1018.5
02 11:56 W 15 G 35 16.09 Fair CLR 13.9 -1.7 34% 76.38 1019.5
02 10:56 SW 22 16.09 Fair CLR 12.2 -2.2 37% 76.43 1020.0
02 09:56 SW 24 16.09 Fair CLR 10.6 -2.2 41% 76.45 1020.4
02 08:56 SW 19 16.09 Fair CLR 8.3 -1.7 50% 6 76.5 1021.0
02 07:56 SW 19 16.09 Fair CLR 5.6 -2.2 58% 2 76.5 1021.3
02 06:56 SW 13 16.09 Fair CLR 1.7 -2.8 3.3 0.6 72% -2 76.5 1021.5
Date Time (cdt) Wind (kph) Vis. (km) Weather Sky Cond. Air Dwpt Max. Min. Relative Humidity Wind Chill (°C) Heat Index (°C) altimeter (cm) sea level (mb) 1 hr 3 hr 6 hr
6 hour
Temperature (ºC) Pressure Precipitation (cm)